Location: Hradec Kralove
(50.2170°N, 15.8330°E)
Time: 12:23:33
(UTC+01:00)

ISS - Pass Details

Date: 14 November 2024
Orbit: 411 x 421 km, 51.6° (Epoch: 05 December)

Event Time Altitude Azimuth Distance (km) Brightness Sun altitude
Rises 17:41:53 0° 190° (S) 2,369 0.4 -14.2°
Reaches altitude 10° 17:45:18 10° 152° (SSE) 1,511 -1.1 -14.7°
Enters shadow 17:46:00 11° 141° (SE) 1,456 -1.3 -14.8°
